Simultaneous Nadir Overpasses (SNOs) Predictions

Prediction of SNOs between AQUA and GOES-15 Satellite Orbit:

Table of predicted SNOs for the next 14.0 days since TLE Epoch: 7/13/2018
Index Date Time (AQUA) AQUA Lat,Lon GOES-15 Lat,Lon Distance(km) Time Diff (sec)
1 07/14/2018 10:20:11 -1.09,-131.22 -0.17,-135.44 480.47 80
2 07/14/2018 22:41:36 -0.02,-136.42 0.19,-135.48 107.26 80
3 07/16/2018 22:29:29 0.62,-133.48 0.19,-135.50 229.29 80
4 07/17/2018 10:50:45 0.46,-138.65 -0.21,-135.48 360.50 80
5 07/19/2018 10:38:38 -0.18,-135.71 -0.21,-135.50 24.38 80
6 07/21/2018 10:26:31 -0.76,-132.77 -0.21,-135.51 311.42 80
7 07/21/2018 22:47:56 -0.27,-137.97 0.23,-135.54 276.66 80
8 07/23/2018 22:35:48 0.32,-135.03 0.23,-135.55 58.38 80
9 07/25/2018 22:23:41 0.98,-132.10 0.23,-135.55 392.83 80
10 07/26/2018 10:44:58 0.13,-137.26 -0.26,-135.52 197.53 80




NCC Satellite Simultaneous Nadir Overpasses (SNOs) Prediction Service
